Location: Trois-Rivi�res
(46.3500°N, 72.5500°W)
Time: 13:55:25
(UTC-05:00)

N. Korean satellite - Pass Details

Date: 16 October 2017
Orbit: 461 x 513 km, 97.2° (Epoch: 16 December)

Event Time Altitude Azimuth Distance (km) Brightness Sun altitude
Rises 18:39:01 0° 162° (SSE) 2,534 10.1 -7.2°
Reaches altitude 10° 18:41:05 10° 160° (SSE) 1,650 9.1 -7.6°
Maximum altitude 18:44:37 73° 77° (ENE) 501 6.4 -8.2°
Drops below altitude 10° 18:48:07 10° 351° (N) 1,639 9.3 -8.8°
Sets 18:50:10 0° 350° (N) 2,515 10.3 -9.2°
